KB9MLJ Weather Reports


time (UTC)temp
F
wind
direction
speed
knots
gust
knots
rain 1hr
in
rain 24hr
in
rain mn
in
humidity
%
barometer
mb
20260509112506 51 228 5.2 6.1 0.00 0.00 0.00 99 1005.4
20260509112002 50 223 3.5 5.2 0.00 0.00 0.00 99 1005.0
20260509111500 50 180 4.3 6.1 0.00 0.00 0.00 99 1005.0
20260509110957 50 185 2.6 4.3 0.00 0.00 0.00 99 1005.0
20260509110453 50 219 1.7 1.7 0.00 0.00 0.00 99 1005.0
20260509105951 50 195 2.6 4.3 0.00 0.00 0.00 99 1004.7
20260509105449 50 229 0.0 0.9 0.00 0.00 0.00 99 1005.0
20260509104946 50 170 4.3 6.1 0.00 0.00 0.00 99 1005.0
20260509104443 50 180 3.5 5.2 0.00 0.00 0.00 99 1005.0
20260509103940 50 180 4.3 4.3 0.00 0.00 0.00 99 1005.0
20260509103438 49 198 1.7 1.7 0.00 0.00 0.00 99 1005.0
20260509102936 49 180 0.9 0.9 0.00 0.00 0.00 99 1005.0
20260509102433 49 181 3.5 4.3 0.00 0.00 0.00 99 1005.0
20260509101928 49 205 2.6 2.6 0.00 0.00 0.00 99 1005.0
20260509101425 49 202 1.7 1.7 0.00 0.00 0.00 99 1005.4
20260509100923 49 202 2.6 4.3 0.00 0.00 0.00 99 1005.0
20260509100420 50 181 2.6 2.6 0.00 0.00 0.00 99 1005.4
20260509095916 50 206 1.7 1.7 0.00 0.00 0.00 99 1005.4
20260509095414 50 204 2.6 2.6 0.00 0.00 0.00 99 1005.4
20260509094910 50 207 0.9 0.9 0.00 0.00 0.00 99 1005.7
20260509094407 50 184 1.7 1.7 0.00 0.00 0.00 99 1005.7
20260509093905 50 214 1.7 1.7 0.00 0.00 0.00 99 1005.4
20260509093402 50 187 2.6 2.6 0.00 0.00 0.00 99 1005.4
20260509092900 50 196 1.7 1.7 0.00 0.00 0.00 99 1005.4
20260509092357 50 199 1.7 1.7 0.00 0.00 0.00 99 1005.4
20260509091856 50 179 3.5 5.2 0.00 0.00 0.00 99 1005.4
20260509091352 50 195 0.9 0.9 0.00 0.00 0.00 99 1005.4
20260509090850 50 192 3.5 4.3 0.00 0.00 0.00 99 1005.4
20260509090347 50 188 0.9 1.7 0.00 0.00 0.00 99 1005.4
20260509085844 50 189 0.9 1.7 0.00 0.00 0.00 99 1005.7
20260509085341 50 189 0.0 0.0 0.00 0.00 0.00 99 1005.7
20260509084838 50 188 1.7 2.6 0.00 0.00 0.00 99 1005.4
20260509084335 50 193 3.5 5.2 0.00 0.00 0.00 99 1005.4
20260509083832 50 204 2.6 2.6 0.00 0.00 0.00 99 1005.4
20260509083329 49 169 2.6 2.6 0.00 0.00 0.00 99 1005.4
20260509082826 49 190 2.6 2.6 0.00 0.00 0.00 99 1005.4
20260509082322 49 174 2.6 2.6 0.00 0.00 0.00 99 1005.4
20260509081820 49 177 2.6 4.3 0.00 0.00 0.00 98 1005.7
20260509081316 49 193 2.6 2.6 0.00 0.00 0.00 98 1005.7
20260509080815 50 173 2.6 2.6 0.00 0.00 0.00 98 1005.7
20260509080312 50 211 1.7 1.7 0.00 0.00 0.00 98 1005.7
20260509075810 50 221 1.7 1.7 0.00 0.00 0.00 98 1005.7
20260509075307 50 225 1.7 1.7 0.00 0.00 0.00 98 1005.7
20260509074804 50 222 0.9 0.9 0.00 0.00 0.00 98 1005.7
20260509074302 50 230 1.7 1.7 0.00 0.00 0.00 98 1005.7
20260509073758 50 229 0.9 0.9 0.00 0.00 0.00 98 1005.7
20260509073254 50 228 0.9 0.9 0.00 0.00 0.00 98 1005.4
20260509072751 50 228 0.9 1.7 0.00 0.00 0.00 98 1005.4
20260509072248 51 229 0.9 0.9 0.00 0.00 0.00 97 1005.7
20260509071744 51 228 2.6 2.6 0.00 0.00 0.00 97 1005.7
20260509071242 51 199 0.9 0.9 0.00 0.00 0.00 97 1005.4
20260509070738 51 193 2.6 4.3 0.00 0.00 0.00 97 1005.7
20260509070235 51 197 0.9 0.9 0.00 0.00 0.00 97 1005.7
20260509065731 51 193 0.9 0.9 0.00 0.00 0.00 97 1005.7
20260509065227 51 194 1.7 2.6 0.00 0.00 0.00 97 1005.7
20260509064724 51 177 0.9 0.9 0.00 0.00 0.00 96 1006.0
20260509064222 51 177 1.7 1.7 0.00 0.00 0.00 96 1005.7
20260509063719 51 200 0.9 0.9 0.00 0.00 0.00 96 1005.7
20260509063215 51 203 1.7 2.6 0.00 0.00 0.00 96 1006.0
20260509062713 51 213 1.7 1.7 0.00 0.00 0.00 96 1006.0
20260509062210 51 216 0.9 0.9 0.00 0.00 0.00 96 1006.5
20260509061707 52 215 0.0 0.0 0.00 0.00 0.00 95 1006.5
20260509061204 52 216 1.7 1.7 0.00 0.00 0.00 95 1006.0
20260509060701 52 231 1.7 1.7 0.00 0.00 0.00 95 1006.0
20260509060157 52 206 0.9 0.9 0.00 0.00 0.00 95 1006.5
20260509055654 52 194 2.6 2.6 0.00 0.00 0.00 94 1006.5
20260509055149 52 214 1.7 1.7 0.00 0.00 0.00 94 1006.5
20260509054646 53 215 0.9 0.9 0.00 0.00 0.00 94 1006.5
20260509054144 53 224 0.9 1.7 0.00 0.00 0.00 94 1006.8
20260509053642 53 192 0.9 1.7 0.00 0.00 0.00 94 1006.5
20260509053138 53 177 2.6 2.6 0.00 0.00 0.00 93 1006.5
20260509052636 53 221 1.7 1.7 0.00 0.00 0.00 93 1006.5
20260509052134 53 222 0.9 0.9 0.00 0.00 0.00 93 1006.5
20260509051631 53 219 1.7 1.7 0.00 0.00 0.00 93 1006.8
20260509051128 53 201 0.9 0.9 0.00 0.00 0.00 93 1006.5
20260509050626 53 202 0.9 1.7 0.00 0.00 0.00 93 1006.5
20260509050122 54 197 0.9 1.7 0.00 0.09 0.09 92 1006.5
20260509045620 54 181 4.3 6.1 0.00 0.09 0.09 92 1006.5
20260509045116 54 202 2.6 2.6 0.00 0.09 0.09 92 1006.5
20260509044613 54 205 1.7 1.7 0.00 0.09 0.09 92 1006.8
20260509044110 54 237 1.7 2.6 0.00 0.09 0.09 92 1006.8
20260509043607 54 198 1.7 2.6 0.00 0.09 0.09 92 1006.8
20260509043102 54 218 1.7 1.7 0.00 0.09 0.09 92 1006.8
20260509042559 54 208 1.7 2.6 0.00 0.09 0.09 92 1007.1
20260509042055 55 203 0.9 1.7 0.00 0.09 0.09 92 1006.8
20260509041552 55 241 0.9 0.9 0.00 0.09 0.09 92 1006.8
20260509041050 55 226 1.7 2.6 0.00 0.09 0.09 92 1006.8
20260509040548 55 208 0.9 0.9 0.00 0.09 0.09 91 1007.1
20260509040044 55 243 0.9 0.9 0.00 0.09 0.09 91 1007.1
20260509035541 55 205 1.7 1.7 0.00 0.09 0.09 91 1007.1
20260509035038 55 186 0.9 0.9 0.00 0.09 0.09 91 1006.8
20260509034536 55 239 2.6 4.3 0.00 0.09 0.09 90 1007.1
20260509034033 55 190 1.7 1.7 0.00 0.09 0.09 90 1006.8
20260509033530 56 223 0.9 1.7 0.00 0.09 0.09 89 1007.1
20260509033027 56 209 3.5 5.2 0.00 0.09 0.09 89 1007.1
20260509032524 56 235 1.7 1.7 0.00 0.09 0.09 89 1007.1
20260509032021 56 235 3.5 5.2 0.00 0.09 0.09 89 1007.1
20260509031519 56 165 3.5 4.3 0.00 0.09 0.09 88 1007.5
20260509031016 56 240 0.9 1.7 0.00 0.09 0.09 88 1007.1
20260509030514 57 208 1.7 2.6 0.00 0.09 0.09 87 1007.5
20260509030010 57 182 0.0 0.9 0.00 0.09 0.09 87 1007.5
20260509025506 57 258 2.6 2.6 0.00 0.09 0.09 86 1007.5
20260509025002 57 236 2.6 2.6 0.00 0.09 0.09 86 1007.1
20260509024458 57 192 0.9 0.9 0.00 0.09 0.09 86 1007.5
20260509023955 57 224 2.6 2.6 0.00 0.09 0.09 86 1007.1
20260509023452 57 190 1.7 1.7 0.00 0.09 0.09 85 1007.5
20260509022949 57 239 1.7 2.6 0.00 0.09 0.09 85 1007.5
20260509022446 58 200 5.2 6.1 0.00 0.09 0.09 85 1007.1
20260509021943 58 230 1.7 1.7 0.00 0.09 0.09 84 1007.5
20260509021440 58 209 1.7 1.7 0.00 0.09 0.09 84 1007.1
20260509020937 58 193 3.5 5.2 0.00 0.09 0.09 83 1007.1
20260509020436 58 183 1.7 2.6 0.00 0.09 0.09 82 1006.8
20260509015932 58 183 2.6 5.2 0.00 0.09 0.09 81 1007.1
20260509015431 59 182 3.5 5.2 0.00 0.09 0.09 80 1006.8
20260509014927 59 170 4.3 5.2 0.00 0.09 0.09 79 1006.8
20260509014424 59 195 2.6 4.3 0.00 0.09 0.09 79 1006.8
20260509013920 59 230 1.7 2.6 0.00 0.09 0.09 78 1006.8
20260509013417 59 156 3.5 5.2 0.00 0.09 0.09 77 1007.1
20260509012913 59 227 1.7 1.7 0.00 0.09 0.09 77 1007.1
20260509012410 59 218 1.7 2.6 0.00 0.09 0.09 76 1007.1
20260509011907 59 263 1.7 2.6 0.00 0.09 0.09 75 1006.8
20260509011404 60 228 0.9 0.9 0.00 0.09 0.09 74 1007.1
20260509010902 60 196 3.5 4.3 0.00 0.09 0.09 74 1006.8
20260509010359 60 245 0.0 0.9 0.00 0.09 0.09 73 1007.1
20260509005856 60 223 1.7 2.6 0.00 0.09 0.09 73 1006.8
20260509005355 60 263 2.6 5.2 0.00 0.09 0.09 73 1006.8
20260509004854 60 235 4.3 7.0 0.00 0.09 0.09 74 1007.1
20260509004351 61 213 3.5 5.2 0.00 0.09 0.09 75 1006.8
20260509003849 61 243 1.7 1.7 0.00 0.09 0.09 75 1007.1
20260509003346 61 226 0.9 1.7 0.00 0.09 0.09 75 1006.8
20260509002843 61 196 3.5 4.3 0.00 0.09 0.09 74 1007.1
20260509002341 61 229 3.5 4.3 0.00 0.09 0.09 74 1006.8
20260509001838 62 240 5.2 6.1 0.00 0.09 0.09 73 1006.8
20260509001334 62 249 5.2 7.0 0.00 0.09 0.09 72 1006.8
20260509000832 63 270 5.2 7.0 0.00 0.09 0.09 71 1006.5
20260509000330 62 204 3.5 4.3 0.00 0.09 0.09 71 1006.5
20260508235825 62 237 3.5 5.2 0.00 0.09 0.09 71 1006.5
20260508235323 62 257 7.0 11.3 0.00 0.09 0.09 71 1006.8
20260508234820 62 179 4.3 5.2 0.00 0.09 0.09 71 1006.8
20260508234316 63 216 6.1 8.7 0.00 0.09 0.09 69 1006.5
20260508233815 63 259 6.1 8.7 0.00 0.09 0.09 68 1006.8
20260508233314 63 196 9.6 12.2 0.00 0.09 0.09 68 1006.8
20260508232810 64 199 2.6 4.3 0.00 0.09 0.09 68 1006.8
20260508232307 66 208 2.6 4.3 0.00 0.09 0.09 65 1007.1
20260508231805 66 185 4.3 5.2 0.00 0.09 0.09 63 1006.5
20260508231301 66 201 2.6 4.3 0.00 0.09 0.09 62 1006.8
20260508230758 66 266 6.1 8.7 0.00 0.09 0.09 62 1006.8
20260508230254 66 236 2.6 2.6 0.00 0.09 0.09 62 1006.8
20260508225752 66 223 6.1 7.8 0.00 0.09 0.09 62 1006.8
20260508225248 65 227 4.3 7.0 0.00 0.09 0.09 63 1006.8
20260508224746 65 244 6.1 7.8 0.00 0.09 0.09 63 1006.8
20260508224243 66 228 5.2 7.0 0.00 0.09 0.09 62 1006.8
20260508223741 66 230 7.8 9.6 0.00 0.09 0.09 62 1006.8
20260508223238 66 181 2.6 2.6 0.00 0.09 0.09 63 1006.8
20260508222735 66 272 3.5 7.0 0.00 0.09 0.09 64 1007.1
20260508222233 65 280 6.1 7.8 0.00 0.09 0.09 63 1006.8
20260508221729 66 245 3.5 4.3 0.00 0.09 0.09 63 1007.1
20260508221225 66 236 7.0 8.7 0.00 0.09 0.09 63 1006.8
20260508220721 65 266 2.6 2.6 0.00 0.09 0.09 65 1006.8
20260508220218 65 219 1.7 2.6 0.00 0.09 0.09 65 1006.8
20260508215714 65 259 6.1 7.0 0.00 0.09 0.09 66 1007.1
20260508215211 65 256 1.7 1.7 0.00 0.09 0.09 65 1006.8
20260508214708 66 228 3.5 4.3 0.00 0.09 0.09 66 1007.5
20260508214205 64 246 4.3 5.2 0.00 0.09 0.09 66 1007.1
20260508213702 65 263 5.2 7.0 0.00 0.09 0.09 67 1007.1
20260508213158 64 229 10.4 13.9 0.00 0.09 0.09 67 1007.5
20260508212655 65 232 6.1 7.8 0.00 0.09 0.09 65 1007.1
20260508212151 65 264 3.5 5.2 0.00 0.09 0.09 67 1007.1
20260508211652 64 267 3.5 4.3 0.00 0.09 0.09 68 1007.1
20260508211148 64 172 6.1 9.6 0.00 0.09 0.09 68 1007.1
20260508210645 64 169 5.2 6.1 0.00 0.09 0.09 69 1007.5
20260508210143 63 261 6.1 7.0 0.00 0.09 0.09 69 1007.1
20260508205639 63 260 3.5 4.3 0.00 0.09 0.09 70 1007.5
20260508205136 63 187 7.8 8.7 0.00 0.09 0.09 70 1007.5
20260508204632 63 269 3.5 5.2 0.00 0.09 0.09 70 1007.5
20260508204128 64 217 3.5 4.3 0.00 0.09 0.09 69 1007.1
20260508203625 63 219 4.3 5.2 0.00 0.09 0.09 71 1007.5
20260508203121 63 262 7.8 9.6 0.00 0.09 0.09 70 1007.5
20260508202617 63 236 4.3 6.1 0.00 0.09 0.09 70 1007.5
20260508202115 64 203 3.5 4.3 0.00 0.09 0.09 70 1007.5
20260508201611 64 284 4.3 5.2 0.00 0.09 0.09 69 1007.8
20260508201108 64 248 4.3 6.1 0.00 0.09 0.09 68 1007.8
20260508200605 63 171 1.7 5.2 0.00 0.09 0.09 69 1007.8
20260508200101 64 223 4.3 7.0 0.00 0.09 0.09 68 1008.2
20260508195557 63 236 4.3 6.1 0.00 0.09 0.09 69 1008.2
20260508195054 64 231 5.2 7.8 0.00 0.09 0.09 69 1007.8
20260508194550 64 262 3.5 5.2 0.00 0.09 0.09 68 1008.2
20260508194048 64 263 5.2 7.8 0.00 0.09 0.09 67 1008.2
20260508193544 64 275 3.5 6.1 0.00 0.09 0.09 67 1008.2
20260508193041 65 241 6.1 8.7 0.00 0.09 0.09 65 1008.2
20260508192538 64 234 5.2 6.1 0.00 0.09 0.09 67 1007.8
20260508192035 64 246 3.5 4.3 0.00 0.09 0.09 66 1008.2
20260508191531 64 210 2.6 4.3 0.00 0.09 0.09 66 1008.2
20260508191028 64 268 3.5 5.2 0.00 0.09 0.09 66 1008.2
20260508190526 64 263 2.6 4.3 0.00 0.09 0.09 66 1008.2
20260508190021 63 269 5.2 6.1 0.00 0.09 0.09 68 1008.2
20260508185519 64 279 6.1 7.8 0.00 0.09 0.09 67 1008.5
20260508185017 64 258 0.9 1.7 0.00 0.09 0.09 67 1008.2
20260508184514 64 257 2.6 2.6 0.00 0.09 0.09 68 1008.2
20260508184011 63 214 5.2 7.0 0.00 0.09 0.09 68 1008.5
20260508183507 63 225 3.5 5.2 0.00 0.09 0.09 70 1008.5
20260508183002 62 165 6.1 8.7 0.00 0.09 0.09 69 1008.8
20260508182500 62 275 4.3 7.8 0.00 0.09 0.09 68 1008.5
20260508181955 62 270 5.2 6.1 0.00 0.09 0.09 68 1008.8
20260508181451 63 269 1.7 1.7 0.00 0.09 0.09 67 1008.8
20260508180949 63 188 2.6 2.6 0.00 0.09 0.09 67 1008.8
20260508180446 63 305 5.2 6.1 0.00 0.09 0.09 66 1008.8
20260508175942 63 259 3.5 4.3 0.00 0.09 0.09 66 1008.8
20260508175438 62 262 1.7 1.7 0.00 0.09 0.09 67 1009.2
20260508174937 62 201 1.7 1.7 0.00 0.09 0.09 67 1008.8
20260508174434 62 236 1.7 2.6 0.00 0.09 0.09 67 1009.2
20260508173930 62 252 2.6 2.6 0.00 0.09 0.09 67 1009.2
20260508173428 62 285 2.6 2.6 0.00 0.09 0.09 66 1009.2
20260508172923 64 255 2.6 2.6 0.00 0.09 0.09 65 1009.2
20260508172421 63 175 1.7 1.7 0.00 0.09 0.09 65 1009.2
20260508171917 63 234 3.5 4.3 0.00 0.09 0.09 66 1009.5
20260508171413 63 219 0.0 0.9 0.00 0.09 0.09 66 1009.5
20260508170910 63 209 2.6 5.2 0.00 0.09 0.09 65 1009.5
20260508170408 63 209 2.6 2.6 0.00 0.09 0.09 67 1009.9
20260508165904 63 262 7.0 12.2 0.00 0.09 0.09 67 1009.9
20260508165402 63 241 4.3 5.2 0.00 0.09 0.09 65 1009.9
20260508164857 63 164 1.7 1.7 0.00 0.09 0.09 66 1009.9
20260508164355 64 222 0.9 1.7 0.00 0.09 0.09 66 1010.2
20260508163852 64 188 1.7 1.7 0.00 0.09 0.09 68 1009.9
20260508163350 63 187 0.9 0.9 0.00 0.09 0.09 69 1010.2
20260508162845 64 217 5.2 6.1 0.00 0.09 0.09 68 1010.2
20260508162343 63 189 1.7 2.6 0.00 0.09 0.09 66 1009.9
20260508161840 62 191 1.7 1.7 0.00 0.09 0.09 68 1010.2
20260508161337 63 278 4.3 5.2 0.00 0.09 0.09 69 1010.2
20260508160834 64 166 0.9 0.9 0.00 0.09 0.09 70 1010.2
20260508160333 62 226 1.7 1.7 0.00 0.09 0.09 72 1010.2
20260508155829 62 203 2.6 2.6 0.00 0.09 0.09 72 1010.5
20260508155326 61 107 3.5 4.3 0.00 0.09 0.09 73 1010.5
20260508154823 61 252 1.7 1.7 0.00 0.09 0.09 72 1010.2
20260508154321 61 181 7.8 8.7 0.00 0.09 0.09 73 1010.5
20260508153817 60 160 2.6 2.6 0.00 0.09 0.09 74 1010.9
20260508153314 60 187 3.5 5.2 0.00 0.09 0.09 75 1010.9
20260508152810 59 169 4.3 5.2 0.00 0.09 0.09 76 1010.9
20260508152307 59 154 2.6 4.3 0.00 0.09 0.09 76 1010.9
20260508151803 60 152 2.6 4.3 0.00 0.09 0.09 75 1010.9
20260508151300 60 170 2.6 2.6 0.00 0.09 0.09 75 1010.9
20260508150756 59 181 2.6 4.3 0.00 0.09 0.09 74 1010.9
20260508150253 59 193 4.3 5.2 0.00 0.09 0.09 73 1010.9
20260508145749 59 202 4.3 5.2 0.00 0.09 0.09 72 1010.9
20260508145245 59 157 2.6 4.3 0.00 0.09 0.09 73 1010.9
20260508144742 59 162 0.9 1.7 0.00 0.09 0.09 76 1010.9
20260508144241 59 164 1.7 1.7 0.00 0.09 0.09 78 1010.9
20260508143738 58 202 1.7 2.6 0.00 0.09 0.09 78 1010.9
20260508143235 58 160 1.7 2.6 0.00 0.09 0.09 79 1010.9
20260508142731 58 186 4.3 5.2 0.00 0.09 0.09 79 1010.9
20260508142228 57 196 4.3 6.1 0.00 0.09 0.09 81 1010.9
20260508141724 56 141 1.7 1.7 0.00 0.09 0.09 85 1010.9
20260508141222 55 170 3.5 4.3 0.00 0.09 0.09 89 1010.9
20260508140719 54 167 4.3 5.2 0.00 0.09 0.09 94 1010.9
20260508140216 53 170 2.6 4.3 0.00 0.09 0.09 97 1010.9
20260508135712 52 160 4.3 6.1 0.00 0.09 0.09 98 1010.9
20260508135207 52 160 6.1 7.8 0.00 0.09 0.09 99 1010.9
20260508134704 52 162 1.7 1.7 0.00 0.09 0.09 99 1010.9
20260508134201 52 195 4.3 5.2 0.00 0.09 0.09 99 1010.9
20260508133658 51 177 4.3 5.2 0.00 0.09 0.09 99 1010.9
20260508133155 51 185 3.5 5.2 0.00 0.09 0.09 99 1010.9
20260508132653 51 165 3.5 4.3 0.00 0.09 0.09 99 1011.2
20260508132150 51 168 3.5 4.3 0.00 0.09 0.09 99 1010.9
20260508131645 51 174 5.2 6.1 0.00 0.09 0.09 99 1011.2
20260508131142 52 191 6.1 7.8 0.00 0.09 0.09 99 1010.9
20260508130638 52 179 7.0 9.6 0.00 0.09 0.09 99 1011.2
20260508130136 52 180 3.5 4.3 0.00 0.09 0.09 99 1010.9
20260508125631 51 171 3.5 4.3 0.00 0.09 0.09 99 1011.2
20260508125129 51 180 5.2 6.1 0.00 0.09 0.09 99 1010.9
20260508124627 51 167 5.2 6.1 0.00 0.09 0.09 99 1011.2
20260508124123 51 187 6.1 7.8 0.00 0.09 0.09 99 1011.2
20260508123622 51 182 2.6 4.3 0.00 0.09 0.09 99 1011.2
20260508123119 51 181 3.5 4.3 0.00 0.09 0.09 99 1011.7
20260508122615 51 211 2.6 2.6 0.00 0.09 0.09 99 1011.7
20260508122112 50 244 2.6 2.6 0.00 0.09 0.09 99 1011.2
20260508121611 50 244 0.9 0.9 0.00 0.09 0.09 99 1011.7
20260508121108 50 244 0.9 0.9 0.00 0.09 0.09 99 1011.2
20260508120605 50 244 1.7 1.7 0.00 0.09 0.09 99 1011.7
20260508120104 50 244 0.9 0.9 0.00 0.09 0.09 99 1011.7
20260508115600 50 244 1.7 1.7 0.04 0.08 0.08 99 1011.2
20260508115057 50 244 0.9 0.9 0.04 0.08 0.08 99 1011.7
20260508114554 50 244 0.0 0.9 0.04 0.08 0.08 99 1011.2
20260508114050 50 244 0.0 0.0 0.03 0.07 0.07 99 1011.7
20260508113548 50 244 0.0 0.0 0.02 0.06 0.06 99 1011.2
20260508113046 49 244 0.0 0.0 0.02 0.06 0.06 99 1010.9